SCP
1 1 1 1 1 1 1 2 2 2 3 3 3 3 3 2 2 1 1 1 1 1 1 1 1 1 1 1 1 1 1 1 0 0 0 0 0 0 0 0 0 0 0
1 1 1 1 1 1 1 1 2 2 2 3 3 3 2 2 2 1 1 1 1 1 1 1 1 1 1 1 1 1 1 0 0 0 0 0 0 0 0 0 0 0 0
1 1 1 1 1 1 1 1 1 1 2 2 2 2 2 2 1 1 1 1 1 1 1 1 1 1 1 1 1 1 1 0 0 0 0 0 0 0 0 0 0 0 0
1 1 1 1 1 1 1 1 1 1 1 1 2 1 1 1 1 1 1 0 0 1 1 1 1 1 1 1 1 1 1 1 0 0 0 0 0 0 0 0 0 0 0
0 1 1 1 1 1 1 1 1 1 1 1 1 1 1 1 1 1 0 0 0 1 1 1 1 1 1 1 1 1 1 1 1 1 0 0 0 0 0 0 0 0 0
0 1 1 1 2 1 1 0 1 1 1 1 1 1 1 1 1 1 1 1 1 1 1 1 1 1 1 1 1 1 1 1 1 1 1 1 0 0 0 0 0 0 0
0 0 1 1 2 1 1 0 0 1 1 1 1 1 1 1 1 1 1 1 1 1 1 1 1 1 1 2 2 2 1 1 1 1 1 1 1 1 0 0 0 0 0
0 0 1 1 1 1 1 0 0 1 1 1 1 1 1 1 1 1 1 1 1 1 1 1 1 1 1 2 2 2 2 2 2 2 2 1 1 1 1 0 0 0 0
0 0 0 1 1 1 1 0 0 0 1 1 1 1 1 1 1 1 1 1 1 1 1 1 1 1 1 1 2 3 2 2 2 2 2 2 1 1 0 0 0 0 0
0 0 0 1 1 1 1 0 0 0 0 1 1 1 1 1 1 1 1 1 1 1 1 1 1 1 0 1 2 2 3 2 2 2 2 2 2 1 0 0 0 0 0
0 0 0 0 1 1 1 0 0 0 0 0 0 0 0 0 0 0 0 1 1 1 1 1 1 1 0 1 1 2 2 2 2 2 2 1 1 1 0 0 0 0 0
0 0 0 0 0 0 1 0 0 0 0 0 0 0 0 0 0 0 0 0 1 1 1 1 1 1 1 1 1 2 2 2 2 1 1 1 1 0 0 0 0 0 0
0 0 0 0 0 0 0 0 0 0 0 0 0 0 0 0 0 0 0 0 1 1 1 1 1 1 1 1 1 1 1 1 1 1 0 0 0 0 0 0 0 0 0
0 0 0 0 0 0 0 0 0 0 0 0 0 0 0 0 0 0 0 0 0 1 1 1 1 1 1 1 1 1 1 0 0 0 0 0 0 0 0 0 0 0 0
0 0 0 0 0 0 0 0 0 0 0 0 0 0 0 0 0 0 0 0 0 1 1 1 1 1 1 1 1 1 0 0 0 0 0 0 0 0 0 0 0 0 0
0 0 0 0 0 0 0 0 0 0 0 0 0 0 0 0 0 0 0 0 0 1 1 1 2 2 1 1 1 0 1 0 0 0 0 0 0 0 0 0 0 0 0
0 0 0 0 0 0 0 0 0 0 0 0 0 0 0 0 0 0 0 0 0 0 1 1 2 2 1 1 0 0 0 1 1 1 0 0 0 0 0 0 0 0 0
0 0 0 0 0 0 0 0 0 0 0 0 0 0 0 0 0 0 0 0 0 0 0 1 1 1 1 0 0 0 0 1 0 0 0 0 0 0 0 0 0 0 0
0 0 0 0 0 0 0 0 0 0 0 0 0 0 0 0 0 0 0 0 0 0 0 0 1 1 0 0 0 0 0 0 0 0 0 0 0 0 0 0 0 0 0
0 0 0 0 0 0 0 0 0 0 0 0 0 0 0 0 0 0 0 0 0 0 0 0 0 0 0 0 0 0 0 0 0 0 0 0 0 0 0 0 0 0 0
0 0 0 0 0 0 0 0 0 0 0 0 0 0 0 0 0 0 0 1 1 0 0 0 0 0 0 0 0 0 0 0 0 0 0 0 0 0 0 0 0 0 0
0 0 0 0 0 0 0 0 0 0 0 0 0 0 0 0 0 0 1 1 1 0 0 0 0 0 0 0 0 0 0 0 0 0 0 0 0 0 0 0 0 0 0
0 0 0 0 0 0 0 0 0 0 0 0 0 0 0 0 0 0 1 1 0 0 0 0 0 0 0 0 0 0 0 0 0 0 0 0 0 0 0 0 0 0 0
0 0 0 0 0 0 0 0 0 0 0 0 0 0 0 0 0 0 1 1 0 0 0 0 0 0 0 0 0 0 0 0 0 0 0 0 0 0 0 0 0 0 0
0 0 0 0 0 0 0 0 0 0 0 0 0 0 0 0 0 0 0 0 0 0 0 0 0 0 0 0 0 0 0 0 0 0 0 0 0 0 0 0 0 0 0
0 0 0 0 0 0 0 0 0 0 0 0 0 0 0 0 0 0 0 0 0 0 0 0 0 0 0 0 0 0 0 0 0 0 0 0 0 0 0 0 0 0 0
Wind_Speed
10 10 9 10 10 10 10 10 9 9 8 6 6 5 5 4 4 3 4 5 5 5 5 4 4 4 4 4 4 3 3 2 2 2 1 1 1 1 1 1 1 1 1
10 10 10 10 10 11 10 10 10 9 9 6 5 4 4 3 3 3 3 4 5 5 5 5 4 4 4 4 4 4 3 2 2 2 2 2 3 2 1 1 2 2 1
12 12 11 11 10 10 10 9 10 9 9 8 5 4 3 3 3 4 3 4 4 5 5 5 5 5 4 4 5 5 5 3 3 2 2 2 3 1 2 1 2 2 2
10 10 11 11 10 10 8 9 9 9 9 9 8 9 7 6 5 4 4 4 4 4 4 5 5 5 4 4 4 4 4 4 3 2 2 2 1 2 1 2 2 2 3
10 10 10 10 9 8 8 8 9 9 9 9 9 9 7 5 4 4 5 4 4 4 4 4 4 5 4 4 4 4 4 4 4 3 2 2 2 3 3 3 3 3 3
8 8 8 8 7 7 7 7 8 8 8 9 9 9 8 7 7 6 6 4 3 3 4 4 4 4 4 4 4 4 4 4 4 3 3 2 3 3 3 4 4 4 3
7 7 8 8 8 8 8 8 8 8 8 8 8 8 8 8 8 7 6 5 4 4 5 4 4 4 4 4 4 4 4 4 4 4 3 3 3 3 3 4 4 5 4
5 6 7 7 7 8 8 8 8 8 7 7 7 7 7 6 5 6 5 5 4 4 5 5 4 4 4 4 4 3 4 4 4 4 4 3 3 3 3 4 4 4 4
5 5 6 6 7 7 8 8 8 7 7 7 6 6 6 6 5 5 5 3 3 3 4 4 4 4 4 4 4 3 4 3 4 4 4 4 3 3 3 3 4 4 5
3 4 4 5 5 6 6 7 7 7 6 6 5 4 5 5 5 5 4 4 4 4 4 4 4 4 4 4 4 3 3 3 3 3 4 4 3 3 3 3 4 4 5
3 3 3 4 5 5 5 6 6 6 6 5 5 5 4 4 4 4 4 4 3 4 4 4 4 4 4 4 4 3 3 4 3 3 3 4 3 3 3 3 4 4 4
2 3 4 4 4 5 5 5 5 6 5 5 5 4 4 4 4 4 3 3 3 3 4 4 4 4 4 4 4 4 4 4 4 3 3 4 3 4 3 3 4 4 4
3 4 4 4 4 4 4 5 5 5 4 4 5 4 4 3 3 3 3 3 3 3 3 4 4 5 5 4 4 4 4 3 3 3 4 4 4 4 3 4 4 4 4
3 4 4 4 4 4 4 4 4 4 4 4 4 4 3 3 3 2 2 2 3 3 3 3 3 4 4 4 4 3 3 3 2 3 3 4 5 4 4 4 4 4 4
3 3 3 3 3 4 4 4 3 3 4 4 3 3 3 2 2 2 2 2 2 2 2 2 2 2 2 3 3 3 3 3 3 2 3 3 4 4 4 4 4 4 4
2 2 3 3 3 3 3 3 3 3 3 3 3 3 3 2 2 2 2 2 2 1 2 2 2 2 2 3 4 3 3 3 3 3 3 3 3 3 4 5 5 5 5
1 2 2 3 2 3 3 3 3 3 3 3 3 3 2 2 2 1 2 1 1 1 2 2 2 3 2 3 4 4 3 3 3 3 3 2 2 3 3 3 4 5 6
1 2 2 3 3 3 3 3 3 3 3 3 3 2 2 2 2 1 1 1 1 1 2 2 2 2 2 3 4 3 3 3 3 3 3 3 3 3 3 3 4 4 4
1 2 2 2 3 3 3 4 3 3 3 3 2 2 1 1 1 1 1 1 1 1 1 1 2 2 2 3 4 3 2 2 2 3 3 3 3 4 4 3 4 4 4
2 3 3 3 3 3 3 3 3 3 3 2 2 1 1 1 1 1 1 1 1 1 1 1 2 2 3 3 4 3 2 2 2 2 3 4 4 4 5 4 4 5 5
3 3 3 3 3 2 3 3 3 2 2 2 1 1 1 0 0 1 1 1 1 1 1 1 1 2 2 3 3 3 2 2 2 2 2 3 4 5 5 5 4 5 6
3 3 3 3 3 2 2 2 2 2 1 1 1 1 1 1 0 0 0 0 1 1 0 1 1 2 2 2 2 3 3 3 3 3 2 2 4 5 6 5 4 6 5
3 3 3 3 3 3 2 2 2 1 1 1 1 1 1 1 0 0 0 0 0 1 1 1 1 1 2 2 2 2 3 4 3 2 3 4 4 4 3 4 5 5 3
2 2 2 2 3 3 2 2 1 1 0 1 1 1 1 1 1 1 0 1 1 1 1 1 1 2 2 2 2 2 2 2 2 2 2 3 3 3 3 4 3 2 3
2 1 2 2 2 2 2 2 1 1 0 1 1 1 1 1 1 1 1 1 1 2 2 2 2 2 2 3 4 4 2 2 2 2 2 2 2 2 2 2 2 2 3
2 2 2 2 2 2 2 2 2 1 1 0 1 1 1 0 0 0 1 2 1 2 3 3 3 3 3 4 4 5 4 4 3 3 2 2 2 2 3 3 3 3 3
Wind_Direction
200 189 186 184 181 182 181 178 176 174 172 169 171 171 173 174 176 180 182 184 184 185 185 183 183 187 190 189 183 174 170 175 165 174 177 184 209 227 240 263 275 282 299
192 187 185 184 186 185 186 184 183 181 180 177 173 176 168 173 171 171 180 185 188 188 189 189 185 186 189 192 189 184 184 183 200 224 218 216 205 192 248 260 271 282 288
197 188 187 187 187 188 189 188 185 184 182 174 163 155 156 165 175 176 178 190 193 191 188 190 188 187 190 193 196 193 197 193 195 230 245 247 244 251 204 247 261 277 283
201 193 189 188 189 190 188 192 187 185 181 178 179 179 184 185 188 182 180 182 189 187 188 191 191 189 191 193 198 203 207 200 195 196 248 285 303 254 246 226 259 291 292
199 194 191 189 187 182 182 187 187 185 183 187 186 189 192 185 175 175 175 176 178 184 186 189 189 190 192 195 196 198 207 210 208 201 202 226 256 258 258 263 268 278 284
197 197 192 186 183 176 174 177 182 183 184 188 190 191 187 182 176 180 178 179 178 182 187 189 190 192 192 195 200 200 204 211 214 213 210 222 233 242 254 268 279 280 288
193 190 185 183 181 178 176 177 176 178 182 186 190 190 189 186 186 184 184 181 182 186 191 192 194 195 198 199 200 202 207 211 215 217 220 232 248 257 254 261 276 282 287
194 191 186 185 182 179 177 177 176 174 176 181 186 187 187 187 186 188 186 187 189 191 190 194 198 199 198 198 200 205 209 214 218 224 226 233 242 246 249 255 268 280 278
197 193 185 184 180 177 176 176 173 170 171 174 178 180 182 182 178 178 183 187 189 187 190 191 194 200 202 202 200 206 210 216 222 226 230 236 242 250 258 260 260 265 277
187 184 183 180 174 171 171 171 170 168 167 167 169 171 175 177 175 175 178 183 188 189 190 190 192 198 202 204 204 208 212 217 222 225 232 241 248 252 259 262 267 267 269
166 164 164 165 159 153 156 157 158 158 157 159 160 162 167 169 171 176 181 185 191 194 196 196 197 199 202 204 206 209 211 219 225 226 233 243 253 257 258 261 264 266 269
131 137 135 135 142 145 147 148 151 153 154 156 156 153 158 164 168 173 181 189 196 198 197 199 200 201 203 206 208 209 210 218 225 231 238 246 252 258 261 260 262 266 271
116 123 123 123 125 130 140 142 143 143 146 150 149 147 153 163 168 172 180 190 195 195 195 203 205 206 207 207 207 205 210 217 223 231 239 247 248 255 261 266 266 269 273
107 111 113 114 118 118 118 126 129 133 138 141 145 146 153 164 168 169 177 189 194 195 194 203 209 208 205 199 193 196 207 214 224 237 248 250 251 255 261 265 266 271 277
92 107 111 111 115 114 112 108 113 123 130 134 136 141 146 151 158 166 175 180 185 193 195 197 199 201 202 198 199 204 209 217 227 240 254 259 263 269 270 268 265 268 270
83 97 111 114 116 115 112 109 106 109 122 125 123 126 134 138 146 155 165 165 168 176 187 197 202 211 213 194 206 214 213 219 225 237 255 264 255 255 270 274 275 274 268
84 90 104 112 106 103 106 107 105 107 113 117 118 120 122 119 123 143 160 166 173 184 200 208 216 227 219 201 206 213 219 220 231 238 247 256 255 260 262 273 284 285 284
85 81 80 89 92 93 94 97 99 101 106 108 106 102 111 113 115 143 166 178 189 203 218 222 228 239 227 211 210 210 220 226 236 243 247 251 254 258 268 275 280 290 294
76 77 73 80 88 89 94 100 96 94 92 86 77 75 98 120 129 150 178 183 185 216 237 243 243 246 237 217 215 211 223 228 248 260 258 255 256 255 271 278 280 292 297
60 65 68 76 80 78 90 99 92 85 76 68 56 50 58 114 163 201 219 210 198 222 250 258 255 252 250 226 224 225 219 228 248 258 260 258 261 264 271 272 270 279 289
55 57 64 64 60 70 88 90 80 63 43 44 49 44 44 44 254 244 234 217 199 210 235 263 278 270 262 242 230 238 241 230 245 256 261 259 262 278 281 286 279 279 293
49 49 55 52 45 56 84 87 66 43 43 52 52 36 26 26 318 237 233 213 192 211 235 275 304 302 282 263 250 262 269 269 254 257 263 264 274 286 290 288 286 296 300
42 45 59 57 41 34 50 72 46 35 51 68 56 40 30 20 349 239 228 214 197 218 247 266 285 304 307 294 282 276 281 291 283 273 278 287 286 287 281 277 290 294 289
32 44 59 57 38 30 40 54 40 23 38 63 52 41 37 26 12 0 291 230 219 230 248 261 278 296 297 293 289 282 287 292 287 280 283 287 281 282 284 284 285 289 289
27 44 59 56 34 22 28 35 29 16 29 40 31 16 17 16 10 5 342 295 280 256 256 263 266 271 279 288 300 297 286 284 284 297 286 280 278 275 283 294 301 302 298
35 40 44 47 31 22 20 21 21 7 359 354 344 334 342 348 341 350 10 31 328 322 304 293 286 287 288 297 299 301 300 299 293 291 265 265 270 274 285 291 296 298 298